Weather in Bitola

North Macedonia     41°01′47″N   21°19′31″E
temp.,
°C
wind,
m/s
gust,
m/s
humid.,
%
clouds,
%
prec.,
mm/h
press.,
hPa
HPBL,
m
27 november, sat
sat2701:00+5sw510837 0.1 1005548
04:00+5sw56809 0.0 1005143
07:00+5sw467999 0.0 1007137
10:00+8ssw3770100 0.0 1006874
13:00+9ssw3671100 0.1 1004906
16:00+7ssw3373100 0.0 100467
19:00+6sw227875 0.0 100536
22:00+6s228290 0.0 100557
28 november, sun
sun2801:00+5sw3391100 1.4 1005138
04:00+5sw2293100 0.8 1005116
07:00+6sw349172 1.1 1006173
10:00+8ssw357199 0.0 1005894
13:00+9ssw356487 0.1 10031063
16:00+6sse3587100 1.3 1002298
19:00+5s3591100 6.3 1000319
22:00+7sw4108397 0.8 999736
29 november, mon
mon2901:00+8sw6137966 1.8 9981139
04:00+7sw587723 1.0 997506
07:00+5sw5107212 1.1 999544
10:00+5wsw2486100 1.2 1001738
13:00+4ssw3491100 6.5 1001434
16:00+4s2295100 1.8 1001359
19:00+3sw488696 5.4 1002705
22:00+2wsw3495100 0.7 1003308
30 november, tue
tue3001:00+2ssw2292100 1.7 1001148
04:00+2w2291100 0.9 1002107
07:00+2w239699 1.5 1005248
10:00+3wsw238788 1.0 1007451
13:00+2nnw1394100 2.5 1009371
16:00−1ne2298100 2.8 1013241
19:00−2nne239697 5.1 1017276
22:00−4nw129638 0.6 101970
1 december, wed
wed101:00−4w229323 0.6 102055
04:00−4wsw33905 0.0 102156
07:00−4wsw33865 0.0 102270
10:00+1wsw34723 0.0 1021401
13:00+3wsw34758 0.0 1019564
16:00+1wsw33852 0.0 102046
19:000wsw33840 0.0 102049
22:000wsw3382100 0.0 101948